Wind_Speed
50 51 51 51 52 51 51 52 52 52 51 50 50 49 50 49 49 49 50 50 50 50 49 49 48 48 47 47 47 46 45 45 44 43 43 42 41 40 39 38 37 36 37 37 36 34 33 32 32 31 31 30
48 49 49 50 51 51 51 51 51 52 52 52 51 50 50 50 49 49 49 50 50 50 51 50 50 50 49 49 49 48 48 47 46 46 45 44 43 43 41 39 38 37 39 39 37 35 35 34 34 34 33 32
47 47 48 49 49 49 50 50 50 51 52 53 52 52 52 51 50 50 50 50 50 50 51 52 52 51 51 51 51 51 50 49 48 48 47 47 46 45 43 41 40 40 41 41 38 37 36 36 36 35 35 34
49 49 49 49 49 49 49 49 50 50 51 52 53 53 53 53 52 52 52 52 51 51 52 52 53 53 53 53 53 53 52 52 51 51 50 49 49 48 46 44 43 43 44 43 41 39 39 38 38 38 37 36
49 50 50 50 50 50 50 50 50 50 51 51 52 53 53 53 53 53 53 53 53 53 53 53 54 55 55 55 55 55 54 54 54 53 53 52 51 51 49 47 47 47 46 46 45 43 42 42 41 41 40 39
49 50 50 50 51 51 51 51 51 51 52 52 52 53 53 54 54 54 54 54 54 54 55 54 54 55 56 56 56 56 56 56 56 56 55 55 54 54 52 50 51 51 49 49 49 48 46 45 44 44 43 42
50 50 50 50 50 51 51 51 52 52 52 52 53 54 54 54 54 54 54 54 54 55 56 55 55 55 56 57 57 57 57 57 58 58 58 57 56 56 54 53 54 54 53 52 52 52 49 48 48 47 46 46
50 50 51 51 51 51 51 51 52 52 52 52 53 54 55 55 56 56 55 55 55 55 55 56 56 56 56 57 57 57 58 58 59 59 59 59 59 58 57 57 57 57 56 55 55 55 53 51 51 50 49 49
51 51 51 51 51 51 51 51 52 52 52 52 52 52 54 55 56 57 57 57 56 56 56 56 56 57 57 57 58 58 58 58 59 60 60 60 60 60 59 60 60 59 58 57 57 57 56 54 54 53 52 52
52 52 52 52 52 52 52 52 52 52 52 53 52 52 53 54 55 57 57 58 58 57 57 57 56 56 57 58 59 60 59 58 59 60 60 61 61 61 60 61 61 61 60 59 59 59 58 57 57 56 55 55
53 54 54 54 53 54 54 54 54 54 53 53 53 53 54 55 55 56 56 57 57 57 58 58 58 58 58 58 59 61 61 60 60 60 60 61 61 61 61 61 62 62 61 61 60 60 60 60 59 59 58 58
55 56 56 56 56 56 55 55 55 55 55 55 55 54 55 56 56 56 56 57 57 57 57 58 59 59 60 59 59 61 62 61 61 62 62 61 61 61 61 62 62 62 62 62 62 62 62 62 61 61 60 60
58 58 58 59 59 59 58 58 57 57 57 57 56 56 56 57 58 58 58 58 59 58 58 57 58 59 60 61 61 62 63 62 61 62 63 63 63 62 62 61 62 63 63 63 62 62 62 62 63 63 62 61
61 61 61 61 61 62 61 61 60 60 59 59 58 58 59 59 59 60 60 61 61 60 60 59 58 58 59 61 62 63 64 63 62 62 63 64 64 63 63 62 62 63 64 64 64 63 63 63 63 64 63 63
64 64 64 64 64 64 64 64 64 64 63 62 61 61 61 61 61 61 61 62 63 63 63 62 61 59 58 59 61 62 64 65 64 63 63 64 65 65 64 64 63 63 64 64 64 64 63 63 63 64 64 64
66 67 67 67 67 67 67 67 67 67 67 66 66 65 64 64 63 63 63 63 64 64 65 65 64 62 60 59 59 61 63 65 66 65 64 65 65 66 66 66 65 64 64 64 63 63 63 63 62 62 63 64
67 68 69 69 70 70 70 70 70 70 70 70 70 69 69 68 67 66 66 65 65 65 65 66 66 65 64 62 60 61 63 65 66 66 65 65 65 66 66 66 66 65 65 64 64 63 63 62 62 62 62 62
69 69 70 71 71 72 73 73 73 72 72 72 72 72 72 72 71 70 69 69 68 67 67 67 68 67 66 65 64 64 63 64 66 67 67 66 65 66 67 66 66 66 66 65 65 65 63 62 61 61 61 61
70 71 72 72 73 74 75 75 75 75 75 75 74 74 74 74 74 74 73 72 72 71 70 70 69 68 66 64 64 66 66 65 67 68 67 67 66 66 66 66 66 67 67 67 66 65 64 63 61 61 60 60
72 73 74 75 75 75 76 77 77 78 78 78 77 77 76 76 76 76 76 76 75 74 73 73 72 71 68 65 63 64 66 67 68 69 69 68 68 66 66 66 66 66 67 67 67 66 65 64 62 61 59 59
75 75 76 76 77 77 78 78 79 80 80 80 80 80 79 79 78 77 77 78 78 77 77 76 75 74 73 72 70 69 70 71 69 70 71 70 70 69 67 66 66 66 66 67 68 68 66 64 62 61 60 59
80 80 80 79 79 79 79 79 80 81 82 82 83 83 82 81 81 80 80 80 80 80 80 79 78 77 76 76 76 76 76 75 73 72 72 72 72 71 70 69 67 66 65 66 67 68 67 65 64 63 62 62
85 86 85 84 84 82 81 81 81 81 82 84 85 85 86 85 84 83 84 84 83 83 83 82 81 80 80 79 79 79 79 78 78 76 74 73 73 73 73 72 70 68 66 66 66 67 68 68 67 66 65 64
90 91 91 90 90 88 87 85 84 83 84 85 86 87 88 88 87 86 86 86 87 86 85 85 84 83 82 82 81 81 81 80 80 80 78 75 74 75 75 74 73 72 69 68 67 67 68 69 69 69 68 67
94 95 96 96 95 94 93 91 89 87 86 86 87 88 89 90 90 90 89 88 88 89 89 88 87 86 85 85 84 83 83 82 81 81 81 79 77 76 76 77 76 74 73 72 70 69 68 69 69 69 69 68
100 100 100 100 101 100 99 97 95 94 92 90 89 88 89 90 91 91 92 91 91 91 91 91 90 89 88 88 87 86 85 84 83 82 83 83 81 79 78 78 78 77 76 75 73 71 69 69 69 70 70 69
102 102 102 102 103 104 104 102 101 100 99 98 95 92 90 91 92 92 92 93 93 93 92 92 92 92 91 91 90 89 88 87 86 85 84 85 85 83 80 80 80 80 79 77 76 74 73 72 71 71 70 69
97 97 98 98 100 102 104 104 104 104 103 103 102 99 96 93 93 93 93 94 95 95 94 94 94 93 93 94 93 92 90 89 88 87 86 86 87 86 84 82 82 82 81 80 79 78 76 75 74 73 70 68
89 88 88 88 90 93 96 98 101 102 103 103 104 103 102 99 96 95 95 95 95 96 96 96 96 95 95 95 96 96 94 91 89 88 87 86 87 88 88 85 84 83 83 83 82 80 78 77 76 73 69 67
77 76 76 76 77 80 81 84 87 91 95 98 101 102 103 102 100 98 98 98 98 97 97 97 97 98 97 97 97 97 97 95 92 89 87 87 87 88 89 87 86 85 84 84 83 82 80 78 75 73 71 70
67 66 66 65 66 67 67 70 72 76 81 86 91 95 98 100 101 100 99 100 100 100 98 98 98 99 99 99 99 99 99 98 96 92 89 87 87 88 89 89 89 87 85 85 84 83 82 79 76 75 74 73
Wind_Direction
270 270 269 269 268 267 265 264 262 260 257 255 253 252 252 251 251 250 250 248 246 246 245 243 242 241 239 238 237 236 235 234 234 234 234 235 235 234 233 232 231 230 230 230 228 228 228 229 229 229 230 231
269 269 268 268 268 267 266 264 262 260 258 255 252 250 248 248 247 248 248 248 247 246 246 245 243 242 241 240 239 237 236 236 236 236 235 235 236 236 235 234 233 233 234 234 231 230 230 230 230 230 230 230
270 269 268 268 268 267 266 265 263 261 259 257 254 251 248 247 245 245 245 245 245 245 245 245 245 244 243 241 240 239 238 238 237 237 237 237 236 237 236 236 235 235 237 237 234 232 233 232 232 232 232 232
271 270 270 269 269 268 267 266 264 262 260 258 256 254 251 248 246 245 244 244 244 244 244 244 245 244 243 243 242 241 240 239 239 239 238 238 238 238 237 237 237 237 238 239 237 235 235 235 235 235 234 234
273 272 271 271 270 269 268 267 266 264 262 260 258 256 254 251 249 247 246 245 244 243 243 243 244 244 243 243 243 242 242 241 240 239 239 239 239 238 238 238 238 238 238 240 239 237 236 236 237 237 236 236
275 274 274 273 271 270 269 268 267 266 264 263 261 259 257 254 252 251 249 248 246 245 243 243 243 243 243 243 242 242 242 242 242 241 240 240 240 240 239 239 239 238 238 239 240 239 237 237 238 238 238 238
274 274 274 273 272 271 270 269 267 266 265 264 263 261 259 257 255 253 252 250 249 248 246 244 244 244 243 243 243 242 242 241 241 241 241 241 240 240 239 239 240 239 239 239 240 240 239 238 239 240 240 240
273 273 273 272 271 271 270 269 268 266 265 264 264 263 262 260 258 256 254 253 251 250 249 247 246 245 244 243 243 243 243 242 241 240 241 241 241 241 240 239 240 240 240 240 241 241 240 239 240 241 241 241
273 272 272 271 271 270 269 268 267 266 265 264 264 263 263 262 261 259 257 255 253 252 251 249 248 247 246 244 244 243 244 244 244 242 241 241 241 240 240 240 240 240 240 240 241 242 241 241 240 240 241 241
273 272 271 270 270 269 268 267 266 265 265 264 264 263 262 262 261 261 260 258 256 254 253 251 249 249 247 246 245 243 243 244 244 244 243 243 242 241 240 240 240 240 240 240 241 242 242 241 241 241 240 241
272 271 270 269 268 267 267 267 266 265 264 264 263 263 263 262 260 260 260 259 258 256 254 253 251 250 249 248 247 245 243 243 243 243 244 244 244 243 243 242 241 241 241 240 241 241 242 242 242 242 241 241
272 271 270 268 267 266 265 265 265 264 263 263 262 262 262 262 261 260 259 259 259 257 255 254 253 252 251 249 249 247 245 245 244 243 242 242 243 244 245 246 245 243 242 241 241 242 242 242 242 242 242 242
271 270 270 269 267 266 265 263 263 262 262 261 261 261 261 261 262 261 260 259 258 258 257 255 253 253 252 251 250 249 247 247 246 244 243 241 241 241 242 245 246 245 244 244 243 243 243 243 243 243 243 243
269 268 267 267 266 266 265 263 262 261 261 260 259 259 259 259 260 261 261 260 259 258 257 256 254 253 253 253 252 252 249 248 248 247 245 243 242 240 239 241 243 244 244 244 245 245 244 244 244 244 244 244
268 267 266 265 264 263 263 263 262 261 260 259 258 258 258 258 258 258 259 260 260 260 258 257 255 253 253 253 253 253 252 250 249 249 248 246 244 242 241 240 240 241 242 242 244 245 245 245 246 245 245 245
269 267 266 264 263 262 261 261 260 260 259 259 258 257 257 257 256 256 256 257 258 259 259 259 257 255 253 253 253 253 253 252 250 249 249 248 246 245 244 242 241 241 241 241 242 243 244 245 246 247 247 247
269 267 266 265 264 263 262 261 259 259 258 258 258 257 256 256 255 255 255 255 255 256 257 259 259 257 255 253 253 253 253 253 252 251 250 249 248 247 246 245 244 242 242 241 241 242 242 243 245 246 247 248
268 267 266 265 264 263 262 261 261 259 258 257 256 256 256 256 255 254 253 253 253 254 254 255 257 258 257 255 253 252 252 253 254 252 251 250 249 248 247 246 246 245 243 242 242 242 242 242 243 244 245 247
268 267 265 264 263 263 262 261 261 260 259 258 257 256 255 255 254 254 253 252 252 252 252 252 253 254 255 255 254 253 251 252 253 253 252 252 250 249 248 247 247 246 245 244 243 242 242 242 242 243 244 245
268 267 265 264 262 261 260 260 260 259 259 258 257 257 256 254 254 253 253 253 251 250 250 250 250 250 251 252 252 252 251 250 251 252 253 252 252 251 249 248 248 247 247 246 245 244 243 242 242 241 242 243
269 267 266 264 263 261 259 258 258 258 258 258 257 257 257 256 254 253 253 252 252 250 249 249 248 248 248 249 250 251 252 250 249 250 252 252 252 252 251 249 248 248 247 247 246 245 244 243 242 241 241 242
271 269 267 265 263 262 260 259 258 257 256 257 257 257 256 256 256 255 253 252 251 251 250 249 248 247 247 247 248 249 251 252 249 247 249 251 252 252 252 251 249 248 247 247 246 246 245 243 242 242 241 241
274 272 270 268 265 263 261 260 258 257 256 255 255 255 256 255 255 255 255 254 252 251 250 250 248 247 246 246 246 247 248 250 251 249 247 248 250 251 251 251 251 249 247 247 247 246 246 244 243 242 242 241
276 274 272 270 268 266 263 260 258 257 255 255 254 254 254 254 254 253 253 254 253 252 250 250 249 248 247 246 246 246 246 247 250 251 249 246 246 249 250 250 250 250 248 247 247 246 245 245 245 243 243 242
276 274 273 271 269 267 265 263 261 258 256 254 253 252 252 252 252 252 251 251 252 252 251 250 249 248 248 247 246 246 246 246 247 249 250 248 244 245 247 248 248 248 248 247 247 247 247 246 246 245 244 243
276 274 273 271 270 268 267 265 264 262 259 256 253 252 251 251 251 251 251 250 250 250 251 250 249 249 248 247 246 245 245 245 245 246 248 250 247 244 244 246 247 246 246 247 247 247 247 246 245 245 244 244
276 274 272 270 268 267 266 265 263 262 261 259 256 253 250 250 250 249 249 250 249 249 249 249 249 249 248 247 246 246 245 245 245 244 245 248 249 247 243 243 245 245 245 246 246 245 245 245 245 245 245 245
277 275 272 270 268 266 264 263 262 261 260 259 258 255 252 249 248 248 248 248 249 248 248 248 248 248 248 248 247 246 244 244 244 244 244 245 248 248 246 243 243 244 244 244 244 244 245 245 245 245 246 247
279 277 274 272 269 266 264 262 261 260 259 257 256 255 254 251 248 247 247 246 247 247 247 247 246 246 246 247 247 246 245 243 243 243 244 244 246 248 248 245 243 243 243 243 244 244 244 244 245 245 246 245
281 279 276 274 271 267 265 262 260 259 258 257 256 254 253 252 249 247 246 245 245 245 246 246 245 245 245 245 245 246 246 244 243 242 243 244 245 246 248 247 245 243 242 243 243 243 244 244 245 244 243 242
284 281 279 277 274 271 268 265 261 259 258 257 256 255 253 252 250 248 246 245 244 244 244 244 244 244 244 244 243 244 245 244 243 241 241 242 244 245 247 248 247 244 243 243 243 243 243 243 243 243 242 242
Height
5726 5725 5725 5724 5724 5724 5724 5723 5723 5723 5723 5723 5723 5723 5723 5725 5726 5727 5728 5729 5730 5731 5732 5732 5733 5734 5735 5736 5738 5739 5740 5742 5743 5744 5745 5746 5748 5749 5751 5753 5754 5755 5755 5755 5757 5759 5761 5762 5764 5765 5767 5769
5720 5720 5719 5718 5718 5718 5718 5718 5718 5717 5717 5717 5717 5717 5717 5718 5719 5720 5722 5723 5724 5726 5726 5727 5728 5729 5730 5731 5732 5733 5735 5736 5737 5738 5740 5741 5743 5744 5746 5748 5750 5751 5750 5750 5753 5755 5756 5758 5759 5761 5762 5764
5714 5713 5713 5712 5712 5712 5712 5712 5712 5712 5711 5711 5711 5711 5711 5712 5712 5713 5714 5716 5717 5719 5720 5721 5722 5723 5724 5725 5726 5728 5729 5731 5732 5733 5735 5736 5738 5739 5741 5743 5745 5746 5745 5746 5749 5752 5752 5754 5755 5756 5758 5760
5707 5707 5707 5707 5706 5706 5706 5706 5706 5706 5706 5705 5705 5706 5706 5706 5706 5706 5707 5708 5710 5711 5713 5714 5716 5717 5719 5720 5721 5722 5723 5725 5726 5727 5729 5731 5732 5734 5736 5738 5739 5740 5740 5741 5744 5747 5748 5750 5751 5752 5754 5756
5701 5701 5701 5700 5700 5700 5700 5700 5700 5700 5699 5699 5699 5700 5700 5700 5701 5701 5701 5701 5702 5703 5705 5707 5709 5711 5712 5714 5715 5717 5718 5719 5721 5722 5723 5725 5727 5728 5731 5733 5733 5734 5735 5736 5738 5741 5743 5744 5746 5747 5749 5751
5694 5694 5694 5694 5693 5693 5693 5693 5693 5693 5693 5693 5693 5693 5694 5694 5695 5695 5695 5696 5696 5697 5698 5700 5701 5703 5705 5707 5709 5710 5712 5713 5714 5716 5717 5719 5721 5722 5726 5728 5727 5728 5730 5731 5732 5734 5737 5739 5740 5742 5744 5746
5688 5688 5688 5687 5687 5686 5686 5687 5686 5686 5686 5686 5687 5687 5687 5688 5689 5690 5690 5690 5690 5691 5692 5693 5694 5695 5697 5699 5702 5704 5705 5707 5708 5710 5711 5713 5715 5716 5721 5722 5719 5721 5725 5725 5725 5727 5731 5734 5735 5736 5739 5741
5682 5681 5681 5681 5680 5679 5680 5680 5679 5679 5680 5679 5680 5680 5680 5681 5682 5683 5684 5684 5685 5685 5686 5687 5688 5688 5690 5691 5693 5696 5698 5699 5701 5703 5705 5707 5708 5710 5715 5715 5713 5715 5719 5720 5718 5721 5726 5728 5729 5731 5733 5735
5675 5675 5674 5674 5673 5673 5673 5672 5672 5672 5672 5672 5673 5673 5673 5674 5675 5676 5677 5678 5678 5679 5679 5680 5681 5682 5682 5684 5685 5687 5690 5692 5693 5696 5698 5700 5702 5705 5707 5707 5707 5709 5712 5714 5712 5713 5719 5722 5723 5725 5727 5729
5668 5668 5667 5667 5666 5666 5665 5665 5665 5665 5665 5665 5666 5665 5665 5666 5667 5668 5669 5671 5671 5672 5672 5673 5675 5675 5675 5676 5678 5680 5682 5683 5685 5688 5691 5693 5695 5698 5700 5700 5701 5703 5705 5707 5706 5707 5712 5715 5716 5718 5721 5722
5661 5660 5660 5659 5659 5658 5658 5657 5657 5658 5658 5658 5658 5658 5657 5657 5659 5660 5661 5662 5663 5665 5665 5666 5667 5667 5668 5669 5670 5672 5674 5675 5677 5680 5683 5685 5688 5691 5693 5693 5695 5697 5699 5700 5700 5701 5705 5708 5709 5711 5714 5715
5653 5652 5652 5651 5651 5650 5650 5650 5650 5650 5651 5651 5651 5651 5650 5649 5649 5651 5652 5653 5654 5656 5658 5659 5660 5660 5660 5662 5663 5664 5666 5668 5669 5672 5674 5676 5679 5683 5685 5686 5688 5690 5692 5694 5694 5695 5698 5701 5702 5704 5706 5708
5645 5644 5643 5643 5642 5642 5641 5641 5641 5641 5642 5643 5643 5643 5643 5641 5641 5642 5643 5644 5645 5647 5649 5651 5652 5653 5653 5654 5655 5656 5659 5661 5661 5663 5666 5668 5671 5674 5676 5678 5680 5683 5685 5687 5689 5690 5692 5694 5695 5697 5699 5701
5636 5635 5635 5634 5633 5633 5632 5632 5632 5632 5633 5633 5634 5634 5634 5634 5634 5634 5635 5635 5636 5637 5639 5642 5644 5646 5646 5646 5647 5648 5651 5653 5653 5655 5657 5660 5663 5665 5667 5669 5671 5674 5677 5680 5682 5684 5686 5687 5688 5690 5692 5694
5627 5626 5625 5624 5624 5623 5623 5623 5623 5623 5624 5624 5624 5625 5625 5625 5626 5626 5627 5627 5627 5628 5630 5632 5635 5637 5639 5640 5640 5639 5641 5644 5645 5646 5648 5652 5654 5657 5659 5661 5662 5665 5668 5671 5673 5676 5678 5680 5681 5683 5685 5686
5616 5615 5614 5614 5613 5613 5613 5613 5613 5613 5614 5615 5615 5615 5615 5615 5616 5617 5618 5619 5619 5619 5620 5621 5624 5628 5630 5632 5633 5632 5633 5634 5636 5638 5640 5643 5646 5649 5651 5653 5655 5657 5659 5662 5664 5666 5669 5671 5673 5675 5677 5679
5606 5605 5604 5603 5602 5602 5602 5602 5603 5603 5604 5604 5605 5605 5606 5606 5606 5607 5608 5610 5611 5611 5611 5612 5613 5616 5620 5623 5625 5626 5625 5625 5627 5630 5632 5634 5637 5640 5643 5645 5647 5649 5651 5653 5655 5657 5659 5662 5664 5666 5669 5671
5596 5594 5593 5592 5592 5591 5591 5591 5591 5592 5593 5594 5595 5595 5596 5596 5596 5597 5598 5599 5601 5602 5603 5603 5604 5606 5608 5612 5615 5617 5618 5618 5619 5621 5624 5626 5629 5632 5635 5637 5639 5641 5643 5644 5646 5648 5650 5652 5655 5657 5660 5662
5585 5584 5582 5581 5581 5580 5579 5580 5580 5580 5581 5582 5583 5584 5585 5585 5585 5586 5587 5589 5590 5592 5593 5595 5596 5597 5599 5601 5603 5605 5609 5611 5610 5612 5615 5617 5620 5623 5626 5629 5631 5633 5635 5636 5638 5640 5641 5644 5646 5648 5651 5653
5573 5572 5570 5570 5569 5569 5568 5568 5568 5568 5568 5569 5571 5571 5573 5574 5575 5576 5577 5578 5579 5581 5583 5584 5587 5589 5590 5591 5591 5593 5597 5601 5602 5603 5606 5609 5611 5614 5618 5620 5622 5625 5626 5628 5629 5631 5632 5635 5637 5640 5643 5645
5559 5558 5557 5557 5556 5556 5556 5556 5556 5556 5556 5557 5558 5559 5560 5561 5563 5565 5566 5566 5567 5568 5571 5573 5576 5579 5581 5581 5581 5582 5583 5588 5593 5594 5595 5599 5602 5605 5608 5611 5614 5616 5618 5620 5620 5621 5624 5626 5629 5632 5634 5636
5544 5543 5542 5542 5542 5542 5543 5544 5544 5545 5545 5545 5546 5547 5548 5549 5551 5553 5554 5554 5555 5556 5559 5561 5565 5568 5571 5571 5571 5572 5572 5574 5580 5584 5586 5589 5592 5595 5598 5602 5606 5608 5610 5611 5611 5613 5615 5618 5620 5623 5625 5627
5528 5527 5526 5526 5527 5527 5529 5530 5531 5532 5533 5533 5534 5534 5535 5537 5540 5541 5541 5541 5543 5545 5547 5550 5553 5556 5559 5561 5562 5563 5563 5564 5566 5571 5577 5581 5583 5585 5588 5592 5595 5599 5600 5601 5603 5605 5607 5609 5611 5614 5616 5619
5512 5509 5509 5509 5509 5510 5512 5514 5516 5518 5519 5520 5521 5522 5522 5523 5526 5528 5529 5529 5530 5532 5536 5538 5541 5544 5547 5549 5551 5553 5555 5556 5557 5559 5564 5570 5574 5575 5577 5581 5584 5588 5590 5592 5594 5596 5598 5600 5603 5605 5608 5611
5494 5492 5490 5490 5490 5492 5493 5496 5499 5501 5503 5504 5506 5508 5509 5510 5511 5513 5516 5517 5518 5519 5522 5526 5529 5532 5535 5537 5539 5542 5544 5547 5549 5549 5551 5556 5562 5565 5567 5570 5574 5578 5579 5580 5583 5587 5590 5592 5594 5597 5599 5603
5475 5473 5472 5471 5472 5473 5475 5479 5481 5482 5485 5487 5491 5493 5495 5496 5498 5499 5501 5503 5505 5506 5508 5513 5517 5520 5523 5525 5526 5530 5533 5536 5539 5540 5541 5542 5547 5554 5558 5560 5564 5567 5567 5570 5575 5579 5580 5581 5585 5588 5591 5595
5454 5452 5452 5451 5452 5453 5455 5460 5462 5462 5465 5468 5472 5477 5480 5481 5483 5485 5487 5489 5491 5494 5497 5500 5503 5507 5510 5513 5514 5517 5521 5524 5527 5530 5532 5532 5533 5540 5546 5549 5551 5554 5558 5562 5565 5566 5567 5572 5577 5578 5582 5589
5432 5431 5431 5431 5432 5432 5435 5439 5442 5443 5445 5448 5451 5456 5462 5466 5467 5469 5472 5475 5476 5479 5484 5487 5490 5494 5497 5500 5502 5504 5508 5512 5515 5519 5522 5523 5523 5526 5531 5537 5540 5544 5549 5551 5552 5555 5559 5564 5565 5568 5578 5585
5414 5412 5411 5411 5411 5412 5416 5419 5422 5424 5425 5427 5430 5435 5441 5447 5451 5453 5456 5459 5461 5463 5468 5473 5476 5480 5483 5486 5489 5491 5495 5500 5503 5507 5511 5513 5514 5514 5517 5524 5530 5533 5536 5538 5542 5546 5549 5553 5556 5565 5575 5575
5398 5396 5394 5394 5393 5395 5399 5402 5404 5405 5406 5408 5411 5415 5420 5425 5432 5437 5439 5441 5445 5448 5452 5457 5461 5464 5469 5473 5476 5478 5482 5487 5491 5495 5499 5503 5504 5505 5506 5511 5515 5519 5525 5528 5531 5535 5538 5544 5550 5557 5561 5560
5385 5382 5381 5380 5379 5381 5383 5385 5388 5390 5389 5392 5394 5397 5402 5406 5412 5418 5422 5424 5427 5432 5436 5440 5444 5448 5453 5458 5462 5465 5468 5474 5479 5483 5487 5491 5493 5495 5497 5499 5501 5507 5515 5517 5519 5524 5530 5536 5539 5543 5547 5551